Hourly Data Report for July 20, 2021

ALGONQUIN PARK EAST GATE
ONTARIO
Current Station Operator: ECCC - MSC

45°32'00.000" N
78°16'00.000" W
397.00 m
6080192
71581
TNK

Download Data

Hourly Data (July 2021)
Hourly Data Report for July 20, 2021
TIME
LST
Temp Definition
°C
Dew Point Definition
°C
Rel Hum Definition
%
Precip. Amount Definition
mm

Wind Dir Definition
10's deg

Wind Spd Definition
km/h
Visibility Definition
km
Stn Press Definition
kPa
Hmdx Definition


Wind Chill Definition


Weather Definition


00:00 15.7 15.3 98 16.8 26 2   96.97     LegendNANA
01:00 15.8 15.4 98 0.0   0   96.84     LegendNANA
02:00 16.0 15.7 98 0.0 28 1   96.71     LegendNANA
03:00 15.1 14.8 98 0.0   0   96.68     LegendNANA
04:00 14.9 14.5 98 0.0   0   96.74     LegendNANA
05:00 14.2 14.0 98 0.0 8 1   96.78     LegendNANA
06:00 14.8 14.6 98 0.0   0   96.77     LegendNANA
07:00 15.9 15.6 98 0.0 35 3   96.87     LegendNANA
08:00 17.8 16.9 95 0.3 9 3   96.75     LegendNANA
09:00 19.2 16.9 87 0.0 12 6   96.67     LegendNANA
10:00 19.9 17.0 84 0.0 14 5   96.65     LegendNANA
11:00 13.8 11.3 85 3.5 29 10   96.78     LegendNANA
12:00 14.8 14.4 98 11.0 26 3   96.66     LegendNANA
13:00 17.9 16.5 91 0.6 28 2   96.60     LegendNANA
14:00 18.3 16.2 88 0.0 1 6   96.63     LegendNANA
15:00 17.7 15.4 87 0.0 34 3   96.68     LegendNANA
16:00 17.3 14.8 85 0.0 2 5   96.67     LegendNANA
17:00 15.7 14.5 92 0.1 1 5   96.74     LegendNANA
18:00 15.2 13.9 92 0.2 36 7   96.75     LegendNANA
19:00 14.1 13.2 94 0.0 2 5   96.82     LegendNANA
20:00 13.6 12.7 94 0.0 2 5   96.87     LegendNANA
21:00 12.7 11.7 94 0.0 7 1   96.90     LegendNANA
22:00 11.4 10.9 97 0.0   0   96.92     LegendNANA
23:00 10.4 10.1 97 0.0 14 1   96.90     LegendNANA

Notes on Data Quality.

Legend

  • E = Estimated
  • M = Missing
  • NA = Not Available*
  • [empty] = Indicates an unobserved value
Date modified: